(80364) = 1999 XS135

Discovered at Socorro on 1999-12-08 by LINEAR.

Orbit

Orbit type: Main Belt

Note: WebGL enabled browser required.

epoch2024-03-31.0
epoch JD2460400.5
perihelion date2022-08-03.31318
perihelion JD2459794.81318
argument of perihelion (°)112.69565
ascending node (°)220.94737
inclination (°)4.64410
eccentricity0.1881187
perihelion distance (AU)1.8180049
Tisserand w.r.t. Jupiter3.6
ΔV w.r.t. Earth (km/sec)8.4
semimajor axis (AU)2.2392496
mean anomaly (°)178.15508
mean daily motion (°/day)0.29413730
aphelion distance (AU)2.660
period (years)3.35
P-vector [x]0.89406031
P-vector [y]-0.43494129
P-vector [z]-0.10715516
Q-vector [x]0.44479269
Q-vector [y]0.83365414
Q-vector [z]0.32738394
absolute magnitude15.85
phase slope0.15
uncertainty0
referenceMPEC 2024-E73
observations used1389
oppositions18
arc length (days)8877
first opposition used1999
last opposition used2024
residual rms (arc-secs)0.66
perturbers coarse indicatorM-v
perturbers precise indicator003Ek
first observation date used1999-11-15.0
last observation date used2024-03-05.0
computer nameMPCLINUX
JD of orbit computation2456760.894546
perihelion JD uncertainty (days)3.4482E-05
argument of perihelion uncertainty (°)4.1327E-05
ascending node uncertainty (°)4.0123E-05
inclination uncertainty (°)4.2590E-06
eccentricity uncertainty 3.9377E-08
perihelion distance uncertainty (AU)8.8924E-08
Minimum Orbit Intersection Distances (in AU)
for orbit epoch: 2460400.5, reference: E2024-E73
Mercury1.42142
Venus1.10073
Earth0.81418
Mars0.46624
Jupiter2.70811
Saturn6.54655
Uranus15.7956
Neptune27.6153

Observations

1413 total observations over interval: 1999 11 15.45220 – 2024 03 05.178899
These data are available for download (format description).

Date (UT) J2000 RA J2000 Dec Magn Location Ref
1999 11 15.45220 06 08 31.44 +19 10 50.3 19.7   704 – Lincoln Laboratory ETS, New Mexico MPS 14069
1999 11 15.46649 06 08 30.80 +19 10 46.1 19.6   704 – Lincoln Laboratory ETS, New Mexico MPS 14069
1999 11 15.48092 06 08 30.29 +19 10 43.3 19.8   704 – Lincoln Laboratory ETS, New Mexico MPS 14069
1999 11 15.49545 06 08 29.68 +19 10 41.7 20.1   704 – Lincoln Laboratory ETS, New Mexico MPS 14069
1999 11 17.35788 06 07 19.75 +19 05 09.6 19.2   704 – Lincoln Laboratory ETS, New Mexico MPS 14069
1999 11 17.37302 06 07 19.11 +19 05 07.7 19.8   704 – Lincoln Laboratory ETS, New Mexico MPS 14069
1999 11 17.41878 06 07 17.17 +19 04 58.5 19.8   704 – Lincoln Laboratory ETS, New Mexico MPS 14069
1999 12 08.32933 05 47 23.83 +18 07 40.8 19.1   704 – Lincoln Laboratory ETS, New Mexico MPS 8087
1999 12 08.34181 05 47 22.91 +18 07 41.2 19.7   704 – Lincoln Laboratory ETS, New Mexico MPS 8087
1999 12 08.35425 05 47 22.06 +18 07 36.8 19.6   704 – Lincoln Laboratory ETS, New Mexico MPS 8087
1999 12 08.36671 05 47 21.12 +18 07 37.0 19.7   704 – Lincoln Laboratory ETS, New Mexico MPS 8087
1999 12 14.23611 05 40 26.70 +17 53 51.9 19.0   704 – Lincoln Laboratory ETS, New Mexico MPS 8087
1999 12 14.26509 05 40 24.48 +17 53 48.5 18.6   704 – Lincoln Laboratory ETS, New Mexico MPS 8087
1999 12 14.27977 05 40 23.42 +17 53 47.2 19.0   704 – Lincoln Laboratory ETS, New Mexico MPS 8087
2000 01 05.21894 05 16 57.44 +17 19 14.7 19.3   704 – Lincoln Laboratory ETS, New Mexico MPS 9018
2000 01 05.23351 05 16 56.65 +17 19 14.6 19.5   704 – Lincoln Laboratory ETS, New Mexico MPS 9018
2000 01 05.24815 05 16 55.86 +17 19 13.9 19.2   704 – Lincoln Laboratory ETS, New Mexico MPS 9018
2000 01 06.15645 05 16 10.68 +17 18 30.0 19.4   704 – Lincoln Laboratory ETS, New Mexico MPS 9018
2000 01 06.17111 05 16 10.00 +17 18 29.9 19.5   704 – Lincoln Laboratory ETS, New Mexico MPS 9018
2000 01 06.18571 05 16 09.26 +17 18 29.3 19.2   704 – Lincoln Laboratory ETS, New Mexico MPS 9018
2000 01 06.20029 05 16 08.51 +17 18 28.9 19.7   704 – Lincoln Laboratory ETS, New Mexico MPS 9018
2001 03 19.26330 12 29 13.20 -07 56 04.8 18.5 R 699 – Lowell Observatory-LONEOS MPS 29981
2001 03 19.29995 12 29 11.06 -07 55 49.7   699 – Lowell Observatory-LONEOS MPS 29981
2001 03 19.33667 12 29 09.05 -07 55 35.3   699 – Lowell Observatory-LONEOS MPS 29981
2001 03 19.37352 12 29 06.90 -07 55 19.8   699 – Lowell Observatory-LONEOS MPS 29981
2001 04 24.15445 11 58 15.79 -03 28 44.4 19.5 R 699 – Lowell Observatory-LONEOS MPS 29981
2001 04 24.19187 11 58 14.52 -03 28 30.4   699 – Lowell Observatory-LONEOS MPS 29981
2001 04 24.22947 11 58 13.14 -03 28 17.8   699 – Lowell Observatory-LONEOS MPS 29981
2001 04 24.26705 11 58 11.79 -03 28 03.5   699 – Lowell Observatory-LONEOS MPS 29981
2002 07 13.40655 00 54 56.67 +11 15 41.3 19.1   704 – Lincoln Laboratory ETS, New Mexico MPS 58789
2002 07 13.41935 00 54 57.82 +11 15 50.3 19.4   704 – Lincoln Laboratory ETS, New Mexico MPS 58789
2002 07 13.43286 00 54 58.94 +11 15 59.2 19.7   704 – Lincoln Laboratory ETS, New Mexico MPS 58789
2002 07 14.35653 00 56 21.39 +11 24 54.1 19.1   704 – Lincoln Laboratory ETS, New Mexico MPS 58789
2002 07 14.36961 00 56 22.54 +11 25 02.1 19.5   704 – Lincoln Laboratory ETS, New Mexico MPS 58789
2002 07 14.39579 00 56 24.88 +11 25 17.1 19.8   704 – Lincoln Laboratory ETS, New Mexico MPS 58789
2002 08 04.40440 01 23 25.92 +14 14 48.6 19.7   704 – Lincoln Laboratory ETS, New Mexico MPS 59679
2002 08 04.41925 01 23 26.88 +14 14 53.5 19.1   704 – Lincoln Laboratory ETS, New Mexico MPS 59679
2002 08 04.43409 01 23 27.80 +14 14 58.5 19.0   704 – Lincoln Laboratory ETS, New Mexico MPS 59679
2002 09 16.44328 01 40 36.79 +15 20 27.8 18.2   608 – Haleakala-AMOS MPS 62761
2002 09 16.45377 01 40 36.54 +15 20 25.5 18.6   608 – Haleakala-AMOS MPS 62761
2002 09 16.46439 01 40 36.27 +15 20 22.6 19.0   608 – Haleakala-AMOS MPS 62761
2002 09 21.37014 01 38 28.45 +14 57 16.5 18.9   608 – Haleakala-AMOS MPS 62761
2002 09 21.38096 01 38 28.13 +14 57 13.0 19.0   608 – Haleakala-AMOS MPS 62761
2002 09 21.39174 01 38 27.71 +14 57 09.3 20.4   608 – Haleakala-AMOS MPS 62761
2002 10 01.31305 01 32 00.34 +13 51 48.9 17.4 R 699 – Lowell Observatory-LONEOS MPS 62761
2002 10 01.33505 01 31 59.25 +13 51 38.4   699 – Lowell Observatory-LONEOS MPS 62761
2002 10 01.35702 01 31 58.17 +13 51 28.3   699 – Lowell Observatory-LONEOS MPS 62761
2002 10 01.37901 01 31 57.12 +13 51 18.1   699 – Lowell Observatory-LONEOS MPS 62761
2002 10 04.32566 01 29 36.50 +13 27 42.7 17.4   704 – Lincoln Laboratory ETS, New Mexico MPS 62761
2002 10 04.34116 01 29 35.67 +13 27 34.7 17.8   704 – Lincoln Laboratory ETS, New Mexico MPS 62761
2002 10 04.35664 01 29 34.86 +13 27 27.4 17.4   704 – Lincoln Laboratory ETS, New Mexico MPS 62761
2002 10 04.37217 01 29 34.03 +13 27 19.4 17.8   704 – Lincoln Laboratory ETS, New Mexico MPS 62761
2002 10 04.38761 01 29 33.23 +13 27 11.8 18.1   704 – Lincoln Laboratory ETS, New Mexico MPS 62761
2002 10 09.25976 01 25 25.41 +12 45 00.5 17.6   704 – Lincoln Laboratory ETS, New Mexico MPS 62761
2002 10 09.27542 01 25 24.57 +12 44 52.3 17.8   704 – Lincoln Laboratory ETS, New Mexico MPS 62761
2002 10 09.29090 01 25 23.69 +12 44 43.8 17.4   704 – Lincoln Laboratory ETS, New Mexico MPS 62761
2002 10 09.30649 01 25 22.81 +12 44 35.6 17.9   704 – Lincoln Laboratory ETS, New Mexico MPS 62761
2002 10 09.32224 01 25 21.92 +12 44 27.5 18.5   704 – Lincoln Laboratory ETS, New Mexico MPS 62761
2002 10 12.25561 01 22 47.80 +12 17 39.5 18.2   704 – Lincoln Laboratory ETS, New Mexico MPS 62761
2002 10 12.27208 01 22 46.88 +12 17 30.1 18.3   704 – Lincoln Laboratory ETS, New Mexico MPS 62761
2002 10 12.28891 01 22 45.96 +12 17 21.0 18.2   704 – Lincoln Laboratory ETS, New Mexico MPS 62761
2002 10 12.30539 01 22 45.02 +12 17 11.6 17.5   704 – Lincoln Laboratory ETS, New Mexico MPS 62761
2002 10 12.32214 01 22 44.06 +12 17 02.1 17.5   704 – Lincoln Laboratory ETS, New Mexico MPS 62761
2002 10 30.15503 01 08 28.22 +09 33 31.9 17.1   644 – Palomar Mountain/NEAT MPS 65471
2002 10 30.17612 01 08 27.34 +09 33 21.5 17.5   644 – Palomar Mountain/NEAT MPS 65471
2002 10 30.20341 01 08 26.20 +09 33 07.8 18.5   644 – Palomar Mountain/NEAT MPS 65471
2002 11 01.24873 01 07 10.07 +09 16 18.0 17.5   704 – Lincoln Laboratory ETS, New Mexico MPS 65471
2002 11 01.26600 01 07 09.40 +09 16 09.6 18.1   704 – Lincoln Laboratory ETS, New Mexico MPS 65471
2002 11 01.28309 01 07 08.78 +09 16 02.2 18.4   704 – Lincoln Laboratory ETS, New Mexico MPS 65471
2002 11 03.49899 01 05 53.98 +08 58 36.6 19.9   608 – Haleakala-AMOS MPS 65471
2002 11 03.50930 01 05 53.66 +08 58 32.3 19.2   608 – Haleakala-AMOS MPS 65471
2002 11 03.51959 01 05 53.31 +08 58 27.5 18.9   608 – Haleakala-AMOS MPS 65471
2002 11 06.16248 01 04 36.32 +08 38 56.4 18.6   704 – Lincoln Laboratory ETS, New Mexico MPS 65471
2002 11 06.17894 01 04 35.82 +08 38 49.5 18.6   704 – Lincoln Laboratory ETS, New Mexico MPS 65471
2002 11 06.19536 01 04 35.30 +08 38 42.8 18.9   704 – Lincoln Laboratory ETS, New Mexico MPS 65471
2002 11 06.21188 01 04 34.85 +08 38 36.2 19.1   704 – Lincoln Laboratory ETS, New Mexico MPS 65471
2002 11 06.22830 01 04 34.21 +08 38 25.4 20.0   704 – Lincoln Laboratory ETS, New Mexico MPS 65471
2002 11 10.15525 01 03 03.50 +08 12 23.3 18.1   704 – Lincoln Laboratory ETS, New Mexico MPS 65471
2002 11 10.17111 01 03 03.12 +08 12 17.8 18.2   704 – Lincoln Laboratory ETS, New Mexico MPS 65471
2002 11 10.18698 01 03 02.78 +08 12 10.7 18.7   704 – Lincoln Laboratory ETS, New Mexico MPS 65471
2002 11 10.20288 01 03 02.44 +08 12 05.5 19.2   704 – Lincoln Laboratory ETS, New Mexico MPS 65471
2002 11 10.21878 01 03 02.05 +08 11 59.9 19.2   704 – Lincoln Laboratory ETS, New Mexico MPS 65471
2002 11 11.34628 01 02 41.27 +08 05 11.7 18.3   644 – Palomar Mountain/NEAT MPS 65471
2002 11 11.36675 01 02 40.89 +08 05 04.7 20.0   644 – Palomar Mountain/NEAT MPS 65471
2002 11 11.38782 01 02 40.46 +08 04 56.2 19.3   644 – Palomar Mountain/NEAT MPS 65471
2002 11 21.16939 01 01 28.84 +07 19 14.6 17.9   644 – Palomar Mountain/NEAT MPS 67551
2002 11 21.19052 01 01 28.83 +07 19 10.3 18.0   644 – Palomar Mountain/NEAT MPS 67551
